GSAT0214 (PRN E05)

Last updated on Feb. 21, 2020, 4:44 a.m. UTC

1 41862U 16069D   20051.31835275 -.00000035  00000-0  00000-0 0  9994
2 41862  54.6323 165.1209 0001897 273.3595  86.5793  1.70473833 20285
UTC
Height (km)
Latitude
Longitude
Inclination
Orbital Period
UTC large
Height (km)
Speed (km/s)
/
Latitude / Longitude
Inclination (degrees)
Orbital Period (minutes)
Azimuth
Elevation
Range (km)
Doppler Factor
iOS Compass Heading
iOS Angle

Next 30 passes for location: Hong Kong

Rise time Rise Azimuth (degrees) Set time Set Azimuth (degrees) Duration Max altitude (degrees)

No matching passes for this satellites